Find Praetorian SDA-605

NORAD ID: 65568 Int'l Des: 2025-203 Owner: SDA Country: US operational
LEOCIRCULARPOLAR

現在のビュー

3D地球を読み込み中...

About Praetorian SDA-605

Praetorian SDA-605 (NORAD 65568) is a satellite launched Sep 10, 2025 by SDA of US. It operates in LEO, CIRCULAR, POLAR orbit with a mass of 300.00 kg.

次回通過

Passes for default location (London). Set your location on the main map for personalized predictions.

高度履歴

Loading altitude history...

軌道要素

1 65568U 25203D 26194.86954329 .00000019 00000-0 63107-5 0 9992
2 65568 81.3029 346.0799 0009290 116.4481 243.7629 13.83199875 42382
Epoch: Jul 13, 2026 • Age: 14 hours

現在のステータス

高度 958.2 km
遠地点 / 近地点 N/A
速度 7.37 km/s
衛星直下点 0.18°N, 108.12°W
打ち上げ日 Sep 10, 2025
運用期間 0.8 years
タイプ other

技術仕様

分類 Payload
質量 300.00 kg
乾燥質量 300.00 kg
総質量 300.00 kg
長さ 1.00 m
直径 0.60 m
スパン 2.00 m
形状 Box + panels
製造者 YORKSS
バスタイプ S-Class
フェーズステータス In Orbit
所有者/国 SDA/US

Most Searched